,,,PA_Meas_PMT16A,,PR_Meas_QMR101_102,,RH_Meas_QMH101,,SR_Meas_QMS101,,TA_Meas_QMH101,,GenWind,,GenWind,
date,time,status,PA,status,PR,status,RH,status,SR,status,TA,status,DirAvg,status,SpdAvg,
2012-01-28, 00:00:04,VALID,999.636,VALID,0,VALID,91.914,VALID,0,VALID,23.7207,VALID,262,VALID,0.185156,
2012-01-28, 00:01:04,VALID,999.644,VALID,0,VALID,91.9369,VALID,0,VALID,23.7012,VALID,262,VALID,0,
2012-01-28, 00:02:04,VALID,999.658,VALID,0,VALID,91.9522,VALID,0,VALID,23.742,VALID,262,VALID,0.119922,
2012-01-28, 00:03:04,VALID,999.658,VALID,0,VALID,91.9751,VALID,0.104696,VALID,23.7402,VALID,262,VALID,0.175391,
2012-01-28, 00:04:04,VALID,999.68,VALID,0,VALID,91.8454,VALID,0.104696,VALID,23.7189,VALID,262,VALID,0.0785156,
2012-01-28, 00:05:04,VALID,999.682,VALID,0,VALID,91.7004,VALID,0,VALID,23.6817,VALID,262,VALID,0,
2012-01-28, 00:06:04,VALID,999.718,VALID,0,VALID,91.8301,VALID,0,VALID,23.6409,VALID,262,VALID,0,
2012-01-28, 00:07:04,VALID,999.702,VALID,0,VALID,92.059,VALID,0,VALID,23.6604,VALID,262,VALID,0,
2012-01-28, 00:08:04,VALID,999.68,VALID,0,VALID,92.1811,VALID,0,VALID,23.6604,VALID,262,VALID,0.325781,
2012-01-28, 00:09:04,VALID,999.698,VALID,0,VALID,92.2421,VALID,0,VALID,23.6817,VALID,264,VALID,0.654297,
2012-01-28, 00:10:04,VALID,999.731,VALID,0,VALID,92.3031,VALID,0,VALID,23.6799,VALID,264,VALID,0.619141,
2012-01-28, 00:11:04,VALID,999.76,VALID,0,VALID,92.3108,VALID,0,VALID,23.7207,VALID,264,VALID,0.485547,
2012-01-28, 00:12:04,VALID,999.743,VALID,0,VALID,92.3108,VALID,0,VALID,23.7402,VALID,264,VALID,0.580469,
2012-01-28, 00:13:04,VALID,999.792,VALID,0,VALID,92.2421,VALID,0,VALID,23.7579,VALID,264,VALID,0.348437,
2012-01-28, 00:14:04,VALID,999.794,VALID,0,VALID,92.1124,VALID,0,VALID,23.7775,VALID,264,VALID,0.0863281,
2012-01-28, 00:15:04,VALID,999.797,VALID,0,VALID,91.9903,VALID,0,VALID,23.7793,VALID,264,VALID,0,
2012-01-28, 00:16:04,VALID,999.826,VALID,0,VALID,91.8301,VALID,0,VALID,23.7597,VALID,264,VALID,0,
2012-01-28, 00:17:04,VALID,999.829,VALID,0,VALID,91.7843,VALID,0,VALID,23.7597,VALID,264,VALID,0,
2012-01-28, 00:18:04,VALID,999.822,VALID,0,VALID,91.7843,VALID,0,VALID,23.7189,VALID,264,VALID,0,
2012-01-28, 00:19:04,VALID,999.81,VALID,0,VALID,91.7843,VALID,0,VALID,23.7402,VALID,264,VALID,0,
2012-01-28, 00:20:04,VALID,999.834,VALID,0,VALID,91.6546,VALID,0,VALID,23.6604,VALID,264,VALID,0.295703,
2012-01-28, 00:21:04,VALID,999.823,VALID,0,VALID,91.8988,VALID,0,VALID,23.6409,VALID,264,VALID,0.220703,
2012-01-28, 00:22:04,VALID,999.872,VALID,0,VALID,91.9674,VALID,0,VALID,23.6817,VALID,264,VALID,0.110547,
2012-01-28, 00:23:04,VALID,999.841,VALID,0,VALID,91.8988,VALID,0,VALID,23.6427,VALID,264,VALID,0,
2012-01-28, 00:24:04,VALID,999.843,VALID,0,VALID,91.8759,VALID,0,VALID,23.6232,VALID,264,VALID,0,
2012-01-28, 00:25:04,VALID,999.772,VALID,0,VALID,91.853,VALID,0,VALID,23.6036,VALID,264,VALID,0.489844,
2012-01-28, 00:26:04,VALID,999.777,VALID,0,VALID,91.8454,VALID,0,VALID,23.5238,VALID,264,VALID,0.454688,
2012-01-28, 00:27:04,VALID,999.702,VALID,0,VALID,91.9293,VALID,0,VALID,23.4848,VALID,264,VALID,0.664063,
2012-01-28, 00:28:04,VALID,999.671,VALID,0,VALID,92.1658,VALID,0,VALID,23.5061,VALID,264,VALID,0.549609,
2012-01-28, 00:29:04,VALID,999.656,VALID,0,VALID,92.3337,VALID,0,VALID,23.4848,VALID,264,VALID,0.601172,
2012-01-28, 00:30:04,VALID,999.657,VALID,0,VALID,92.5015,VALID,0,VALID,23.5256,VALID,264,VALID,0.439453,
2012-01-28, 00:31:04,VALID,999.652,VALID,0,VALID,92.6007,VALID,0,VALID,23.5451,VALID,264,VALID,0.398828,
2012-01-28, 00:32:04,VALID,999.608,VALID,0,VALID,92.616,VALID,0,VALID,23.5646,VALID,264,VALID,0.249219,
2012-01-28, 00:33:04,VALID,999.62,VALID,0,VALID,92.6083,VALID,0,VALID,23.5841,VALID,264,VALID,0.449219,
2012-01-28, 00:34:04,VALID,999.602,VALID,0,VALID,92.6007,VALID,0,VALID,23.5841,VALID,264,VALID,0,
2012-01-28, 00:35:04,VALID,999.604,VALID,0,VALID,92.5931,VALID,0,VALID,23.5841,VALID,264,VALID,0,
2012-01-28, 00:36:04,VALID,999.57,VALID,0,VALID,92.5626,VALID,0,VALID,23.6036,VALID,264,VALID,0,
2012-01-28, 00:37:04,VALID,999.552,VALID,0,VALID,92.532,VALID,0,VALID,23.6232,VALID,264,VALID,0,
2012-01-28, 00:38:04,VALID,999.543,VALID,0,VALID,92.4634,VALID,0,VALID,23.6036,VALID,264,VALID,0,
2012-01-28, 00:39:04,VALID,999.539,VALID,0,VALID,92.41,VALID,0,VALID,23.5841,VALID,264,VALID,0,
2012-01-28, 00:40:04,VALID,999.497,VALID,0,VALID,92.2421,VALID,0,VALID,23.5451,VALID,264,VALID,0,
2012-01-28, 00:41:04,VALID,999.491,VALID,0,VALID,92.204,VALID,0,VALID,23.5256,VALID,264,VALID,0,
2012-01-28, 00:42:04,VALID,999.461,VALID,0,VALID,92.3337,VALID,0,VALID,23.5256,VALID,264,VALID,0,
2012-01-28, 00:43:04,VALID,999.428,VALID,0,VALID,92.4481,VALID,0,VALID,23.5238,VALID,264,VALID,0,
2012-01-28, 00:44:04,VALID,999.409,VALID,0,VALID,92.5091,VALID,0.104696,VALID,23.5646,VALID,264,VALID,0,
2012-01-28, 00:45:04,VALID,999.358,VALID,0,VALID,92.5473,VALID,0,VALID,23.5841,VALID,264,VALID,0,
2012-01-28, 00:46:04,VALID,999.344,VALID,0,VALID,92.5473,VALID,0,VALID,23.6036,VALID,264,VALID,0,
2012-01-28, 00:47:04,VALID,999.31,VALID,0,VALID,92.5168,VALID,0,VALID,23.5823,VALID,264,VALID,0,
2012-01-28, 00:48:04,VALID,999.268,VALID,0,VALID,92.4481,VALID,0,VALID,23.6214,VALID,264,VALID,0,
2012-01-28, 00:49:04,VALID,999.241,VALID,0,VALID,92.3794,VALID,0,VALID,23.6232,VALID,264,VALID,0,
2012-01-28, 00:50:04,VALID,999.236,VALID,0,VALID,92.326,VALID,0,VALID,23.6232,VALID,264,VALID,0,
2012-01-28, 00:51:04,VALID,999.226,VALID,0,VALID,92.3184,VALID,0,VALID,23.6427,VALID,264,VALID,0,
2012-01-28, 00:52:04,VALID,999.239,VALID,0,VALID,92.2955,VALID,0,VALID,23.6427,VALID,264,VALID,0,
2012-01-28, 00:53:04,VALID,999.248,VALID,0,VALID,92.3337,VALID,0,VALID,23.6214,VALID,264,VALID,0,
2012-01-28, 00:54:04,VALID,999.258,VALID,0,VALID,92.3413,VALID,0,VALID,23.6019,VALID,264,VALID,0,
2012-01-28, 00:55:04,VALID,999.237,VALID,0,VALID,92.41,VALID,0,VALID,23.6427,VALID,264,VALID,0,
2012-01-28, 00:56:04,VALID,999.278,VALID,0,VALID,92.4786,VALID,0,VALID,23.6622,VALID,264,VALID,0,
2012-01-28, 00:57:04,VALID,999.3,VALID,0,VALID,92.532,VALID,0,VALID,23.6817,VALID,264,VALID,0,
2012-01-28, 00:58:04,VALID,999.33,VALID,0,VALID,92.4939,VALID,0,VALID,23.6817,VALID,264,VALID,0,
2012-01-28, 00:59:04,VALID,999.365,VALID,0,VALID,92.41,VALID,0,VALID,23.6622,VALID,264,VALID,0,
2012-01-28, 01:00:04,VALID,999.41,VALID,0,VALID,92.3871,VALID,0,VALID,23.6604,VALID,264,VALID,0,
2012-01-28, 01:01:04,VALID,999.433,VALID,0,VALID,92.3642,VALID,0,VALID,23.6409,VALID,264,VALID,0,
2012-01-28, 01:02:04,VALID,999.393,VALID,0,VALID,92.326,VALID,0,VALID,23.6622,VALID,264,VALID,0,
2012-01-28, 01:03:04,VALID,999.397,VALID,0,VALID,92.3413,VALID,0,VALID,23.6232,VALID,348,VALID,0,
2012-01-28, 01:04:04,VALID,999.35,VALID,0,VALID,92.4023,VALID,0,VALID,23.5841,VALID,348,VALID,0,
2012-01-28, 01:05:04,VALID,999.302,VALID,0,VALID,92.4786,VALID,0,VALID,23.5451,VALID,348,VALID,0,
2012-01-28, 01:06:04,VALID,999.253,VALID,0,VALID,92.5854,VALID,0,VALID,23.5256,VALID,348,VALID,0,
2012-01-28, 01:07:04,VALID,999.218,VALID,0,VALID,92.7304,VALID,0,VALID,23.5256,VALID,348,VALID,0,
2012-01-28, 01:08:04,VALID,999.232,VALID,0,VALID,92.8143,VALID,0,VALID,23.5256,VALID,348,VALID,0,
2012-01-28, 01:09:04,VALID,999.228,VALID,0,VALID,92.883,VALID,0,VALID,23.5256,VALID,348,VALID,0,
2012-01-28, 01:10:04,VALID,999.244,VALID,0,VALID,92.8983,VALID,0,VALID,23.5061,VALID,348,VALID,0,
2012-01-28, 01:11:04,VALID,999.228,VALID,0,VALID,92.9059,VALID,0,VALID,23.4653,VALID,348,VALID,0,
2012-01-28, 01:12:04,VALID,999.197,VALID,0,VALID,92.944,VALID,0,VALID,23.4458,VALID,348,VALID,0,
2012-01-28, 01:13:04,VALID,999.175,VALID,0,VALID,92.944,VALID,0,VALID,23.4671,VALID,348,VALID,0,
2012-01-28, 01:14:04,VALID,999.156,VALID,0,VALID,92.944,VALID,0,VALID,23.4671,VALID,348,VALID,0,
2012-01-28, 01:15:04,VALID,999.131,VALID,0,VALID,92.944,VALID,0,VALID,23.4688,VALID,348,VALID,0,
2012-01-28, 01:16:04,VALID,999.078,VALID,0,VALID,92.9974,VALID,0,VALID,23.4671,VALID,348,VALID,0,
2012-01-28, 01:17:04,VALID,999.038,VALID,0,VALID,93.0127,VALID,0,VALID,23.4866,VALID,348,VALID,0,
2012-01-28, 01:18:04,VALID,999.001,VALID,0,VALID,93.0432,VALID,0,VALID,23.4866,VALID,348,VALID,0,
2012-01-28, 01:19:04,VALID,998.942,VALID,0,VALID,93.0127,VALID,0,VALID,23.5061,VALID,348,VALID,0,
2012-01-28, 01:20:04,VALID,998.946,VALID,0,VALID,92.9669,VALID,0,VALID,23.5061,VALID,348,VALID,0,
2012-01-28, 01:21:04,VALID,998.882,VALID,0,VALID,92.9745,VALID,0,VALID,23.5061,VALID,348,VALID,0,
2012-01-28, 01:22:04,VALID,998.857,VALID,0,VALID,92.9669,VALID,0,VALID,23.5256,VALID,348,VALID,0,
2012-01-28, 01:23:04,VALID,998.849,VALID,0,VALID,92.9822,VALID,0,VALID,23.5256,VALID,348,VALID,0,
2012-01-28, 01:24:04,VALID,998.861,VALID,0,VALID,92.9898,VALID,0,VALID,23.5646,VALID,348,VALID,0,
2012-01-28, 01:25:04,VALID,998.868,VALID,0,VALID,92.9364,VALID,0,VALID,23.5646,VALID,348,VALID,0,
2012-01-28, 01:26:04,VALID,998.896,VALID,0,VALID,92.9364,VALID,0,VALID,23.5646,VALID,32,VALID,0,
2012-01-28, 01:27:04,VALID,998.911,VALID,0,VALID,93.0127,VALID,0,VALID,23.5646,VALID,33,VALID,0.991797,
2012-01-28, 01:28:04,VALID,998.88,VALID,0,VALID,93.0585,VALID,0,VALID,23.6036,VALID,33,VALID,1.11992,
2012-01-28, 01:29:04,VALID,998.875,VALID,0,VALID,93.0661,VALID,0,VALID,23.6232,VALID,33,VALID,0.853516,
2012-01-28, 01:30:04,VALID,998.894,VALID,0,VALID,93.0432,VALID,0,VALID,23.6622,VALID,33,VALID,0.695313,
2012-01-28, 01:31:04,VALID,998.882,VALID,0,VALID,93.0127,VALID,0,VALID,23.6622,VALID,33,VALID,0.758984,
2012-01-28, 01:32:04,VALID,998.938,VALID,0,VALID,92.9669,VALID,0,VALID,23.7012,VALID,33,VALID,0.753125,
2012-01-28, 01:33:04,VALID,998.916,VALID,0,VALID,92.9517,VALID,0,VALID,23.7012,VALID,33,VALID,0.775,
2012-01-28, 01:34:04,VALID,998.935,VALID,0,VALID,92.9288,VALID,0,VALID,23.7402,VALID,33,VALID,0.696484,
2012-01-28, 01:35:04,VALID,998.952,VALID,0,VALID,92.883,VALID,0,VALID,23.7402,VALID,33,VALID,0.613281,
2012-01-28, 01:36:04,VALID,998.949,VALID,0,VALID,92.8754,VALID,0,VALID,23.7189,VALID,75,VALID,0.805078,
2012-01-28, 01:37:04,VALID,998.955,VALID,0,VALID,92.9135,VALID,0,VALID,23.7597,VALID,75,VALID,0.701172,
2012-01-28, 01:38:04,VALID,998.857,VALID,0,VALID,92.9288,VALID,0,VALID,23.7597,VALID,75,VALID,0.555078,
2012-01-28, 01:39:04,VALID,998.803,VALID,0,VALID,92.9593,VALID,0,VALID,23.7793,VALID,75,VALID,0.417188,
2012-01-28, 01:40:04,VALID,998.704,VALID,0,VALID,92.9593,VALID,0,VALID,23.7597,VALID,75,VALID,0.378516,
2012-01-28, 01:41:04,VALID,998.628,VALID,0,VALID,92.9898,VALID,0,VALID,23.7793,VALID,75,VALID,0.248828,
2012-01-28, 01:42:04,VALID,998.537,VALID,0,VALID,92.9898,VALID,0,VALID,23.7793,VALID,75,VALID,0.240234,
2012-01-28, 01:43:04,VALID,998.469,VALID,0,VALID,92.9898,VALID,0,VALID,23.7988,VALID,75,VALID,0.164063,
2012-01-28, 01:44:04,VALID,998.407,VALID,0,VALID,92.9974,VALID,0,VALID,23.7793,VALID,75,VALID,0.330078,
2012-01-28, 01:45:04,VALID,998.39,VALID,0,VALID,92.9898,VALID,0,VALID,23.7793,VALID,75,VALID,0.572266,
2012-01-28, 01:46:04,VALID,998.336,VALID,0,VALID,93.0585,VALID,0,VALID,23.7988,VALID,75,VALID,0.622266,
2012-01-28, 01:47:04,VALID,998.379,VALID,0,VALID,93.1043,VALID,0,VALID,23.7988,VALID,75,VALID,0.574219,
2012-01-28, 01:48:04,VALID,998.498,VALID,0,VALID,93.1653,VALID,0,VALID,23.8183,VALID,75,VALID,0.475781,
2012-01-28, 01:49:04,VALID,998.636,VALID,0,VALID,93.1195,VALID,0,VALID,23.8378,VALID,75,VALID,0.624219,
2012-01-28, 01:50:04,VALID,998.776,VALID,0,VALID,93.089,VALID,0,VALID,23.8591,VALID,75,VALID,0.694141,
2012-01-28, 01:51:04,VALID,998.901,VALID,0,VALID,93.0585,VALID,0,VALID,23.8378,VALID,75,VALID,0.934766,
2012-01-28, 01:52:04,VALID,999.039,VALID,0,VALID,93.0814,VALID,0,VALID,23.8573,VALID,68,VALID,1.05898,
2012-01-28, 01:53:04,VALID,999.049,VALID,0,VALID,93.0737,VALID,0,VALID,23.8378,VALID,58,VALID,0.985547,
2012-01-28, 01:54:04,VALID,999.092,VALID,0,VALID,93.0585,VALID,0,VALID,23.8378,VALID,34,VALID,0.830469,
2012-01-28, 01:55:04,VALID,999.023,VALID,0,VALID,93.0508,VALID,0,VALID,23.8378,VALID,16,VALID,0.851172,
2012-01-28, 01:56:04,VALID,998.959,VALID,0,VALID,93.0661,VALID,0,VALID,23.8378,VALID,356,VALID,1.14336,
2012-01-28, 01:57:04,VALID,998.881,VALID,0,VALID,93.1424,VALID,0,VALID,23.7988,VALID,349,VALID,0.95,
2012-01-28, 01:58:04,VALID,998.851,VALID,0,VALID,93.2645,VALID,0,VALID,23.8378,VALID,332,VALID,0.838281,
2012-01-28, 01:59:04,VALID,998.855,VALID,0,VALID,93.3408,VALID,0,VALID,23.8573,VALID,332,VALID,0.682422,
2012-01-28, 02:00:04,VALID,998.868,VALID,0,VALID,93.4171,VALID,0,VALID,23.8963,VALID,351,VALID,0.777344,
2012-01-28, 02:01:04,VALID,998.888,VALID,0,VALID,93.4705,VALID,0,VALID,23.9159,VALID,360,VALID,0.727734,
2012-01-28, 02:02:04,VALID,998.911,VALID,0,VALID,93.5086,VALID,0,VALID,23.9549,VALID,11,VALID,0.732031,
2012-01-28, 02:03:04,VALID,998.885,VALID,0,VALID,93.5239,VALID,0,VALID,23.9957,VALID,20,VALID,0.586328,
2012-01-28, 02:04:04,VALID,998.833,VALID,0,VALID,93.5239,VALID,0,VALID,23.9744,VALID,20,VALID,0.553125,
2012-01-28, 02:05:04,VALID,998.768,VALID,0,VALID,93.501,VALID,0,VALID,23.9939,VALID,20,VALID,0.36875,
2012-01-28, 02:06:04,VALID,998.721,VALID,0,VALID,93.5086,VALID,0,VALID,23.9939,VALID,23,VALID,0.589063,
2012-01-28, 02:07:04,VALID,998.685,VALID,0,VALID,93.4705,VALID,0,VALID,23.9939,VALID,24,VALID,0.359766,
2012-01-28, 02:08:04,VALID,998.654,VALID,0,VALID,93.44,VALID,0,VALID,23.9939,VALID,24,VALID,0.590234,
2012-01-28, 02:09:04,VALID,998.639,VALID,0,VALID,93.3942,VALID,0,VALID,24.0134,VALID,24,VALID,0.709375,
2012-01-28, 02:10:04,VALID,998.621,VALID,0,VALID,93.3484,VALID,0,VALID,23.9939,VALID,44,VALID,0.983203,
2012-01-28, 02:11:04,VALID,998.582,VALID,0,VALID,93.3331,VALID,0,VALID,23.9921,VALID,47,VALID,0.9125,
2012-01-28, 02:12:04,VALID,998.553,VALID,0,VALID,93.295,VALID,0,VALID,24.0134,VALID,47,VALID,0.933594,
2012-01-28, 02:13:04,VALID,998.515,VALID,0,VALID,93.2797,VALID,0,VALID,23.9921,VALID,47,VALID,1.13594,
2012-01-28, 02:14:04,VALID,998.487,VALID,0,VALID,93.295,VALID,0,VALID,24.0134,VALID,37,VALID,1.26875,
2012-01-28, 02:15:04,VALID,998.485,VALID,0,VALID,93.2874,VALID,0,VALID,24.0134,VALID,34,VALID,1.30586,
2012-01-28, 02:16:04,VALID,998.446,VALID,0,VALID,93.3026,VALID,0,VALID,24.0329,VALID,34,VALID,1.00937,
2012-01-28, 02:17:04,VALID,998.484,VALID,0,VALID,93.3484,VALID,0,VALID,24.0506,VALID,33,VALID,1.40313,
2012-01-28, 02:18:04,VALID,998.487,VALID,0,VALID,93.3713,VALID,0,VALID,24.0506,VALID,21,VALID,0.936328,
2012-01-28, 02:19:04,VALID,998.493,VALID,0,VALID,93.3255,VALID,0,VALID,24.0525,VALID,37,VALID,1.14297,
2012-01-28, 02:20:04,VALID,998.556,VALID,0,VALID,93.3331,VALID,0,VALID,24.0506,VALID,41,VALID,1.25937,
2012-01-28, 02:21:04,VALID,998.598,VALID,0,VALID,93.356,VALID,0,VALID,24.072,VALID,58,VALID,1.31172,
2012-01-28, 02:22:04,VALID,998.627,VALID,0,VALID,93.4018,VALID,0,VALID,24.111,VALID,66,VALID,1.32969,
2012-01-28, 02:23:04,VALID,998.681,VALID,0,VALID,93.4323,VALID,0,VALID,24.1305,VALID,53,VALID,1.00234,
2012-01-28, 02:24:04,VALID,998.712,VALID,0,VALID,93.4247,VALID,0,VALID,24.15,VALID,33,VALID,0.829687,
2012-01-28, 02:25:04,VALID,998.69,VALID,0,VALID,93.44,VALID,0,VALID,24.1696,VALID,23,VALID,0.663281,
2012-01-28, 02:26:04,VALID,998.68,VALID,0,VALID,93.4781,VALID,0,VALID,24.1482,VALID,1,VALID,0.751172,
2012-01-28, 02:27:04,VALID,998.668,VALID,0,VALID,93.4857,VALID,0,VALID,24.1891,VALID,360,VALID,0.887891,
2012-01-28, 02:28:04,VALID,998.657,VALID,0,VALID,93.4781,VALID,0,VALID,24.1891,VALID,13,VALID,0.546484,
2012-01-28, 02:29:04,VALID,998.643,VALID,0,VALID,93.4857,VALID,0,VALID,24.2086,VALID,13,VALID,0.186719,
2012-01-28, 02:30:04,VALID,998.648,VALID,0,VALID,93.4705,VALID,0,VALID,24.2281,VALID,13,VALID,0.0207031,
2012-01-28, 02:31:04,VALID,998.626,VALID,0,VALID,93.44,VALID,0,VALID,24.2281,VALID,13,VALID,0,
2012-01-28, 02:32:04,VALID,998.625,VALID,0,VALID,93.4247,VALID,0,VALID,24.2281,VALID,13,VALID,0,
2012-01-28, 02:33:04,VALID,998.562,VALID,0,VALID,93.3866,VALID,0,VALID,24.2476,VALID,13,VALID,0.231641,
2012-01-28, 02:34:04,VALID,998.577,VALID,0,VALID,93.3255,VALID,0,VALID,24.2281,VALID,13,VALID,0.298047,
2012-01-28, 02:35:04,VALID,998.555,VALID,0,VALID,93.2492,VALID,0,VALID,24.2476,VALID,13,VALID,0.369141,
2012-01-28, 02:36:04,VALID,998.516,VALID,0,VALID,93.1729,VALID,0,VALID,24.2281,VALID,13,VALID,0.444922,
2012-01-28, 02:37:04,VALID,998.508,VALID,0,VALID,93.1043,VALID,0,VALID,24.2281,VALID,13,VALID,0.273828,
2012-01-28, 02:38:04,VALID,998.512,VALID,0,VALID,93.0432,VALID,0,VALID,24.2476,VALID,13,VALID,0.0515625,
2012-01-28, 02:39:04,VALID,998.534,VALID,0,VALID,92.9822,VALID,0,VALID,24.2476,VALID,13,VALID,0,
2012-01-28, 02:40:04,VALID,998.55,VALID,0,VALID,92.9288,VALID,0,VALID,24.2671,VALID,13,VALID,0.134375,
2012-01-28, 02:41:04,VALID,998.644,VALID,0,VALID,92.944,VALID,0,VALID,24.2671,VALID,149,VALID,0.832812,
2012-01-28, 02:42:04,VALID,998.608,VALID,0,VALID,92.9211,VALID,0,VALID,24.2671,VALID,165,VALID,1.06953,
2012-01-28, 02:43:04,VALID,998.613,VALID,0,VALID,92.883,VALID,0,VALID,24.2866,VALID,156,VALID,1.27891,
2012-01-28, 02:44:04,VALID,998.587,VALID,0,VALID,92.8754,VALID,0,VALID,24.3062,VALID,156,VALID,1.28984,
2012-01-28, 02:45:04,VALID,998.49,VALID,0,VALID,92.8754,VALID,0,VALID,24.3257,VALID,156,VALID,1.2332,
2012-01-28, 02:46:04,VALID,998.398,VALID,0,VALID,92.8296,VALID,0,VALID,24.3452,VALID,151,VALID,1.33906,
2012-01-28, 02:47:04,VALID,998.343,VALID,0,VALID,92.7991,VALID,0,VALID,24.3666,VALID,139,VALID,1.17617,
2012-01-28, 02:48:04,VALID,998.258,VALID,0,VALID,92.7457,VALID,0,VALID,24.3062,VALID,149,VALID,1.15898,
2012-01-28, 02:49:04,VALID,998.146,VALID,0,VALID,92.6846,VALID,0,VALID,24.3257,VALID,158,VALID,1.19102,
2012-01-28, 02:50:04,VALID,998.081,VALID,0,VALID,92.6694,VALID,0,VALID,24.3062,VALID,172,VALID,1.19883,
2012-01-28, 02:51:04,VALID,998.049,VALID,0,VALID,92.6465,VALID,0,VALID,24.3062,VALID,179,VALID,0.983984,
2012-01-28, 02:52:04,VALID,998.055,VALID,0,VALID,92.6236,VALID,0,VALID,24.3062,VALID,179,VALID,0.818359,
2012-01-28, 02:53:04,VALID,998.094,VALID,0,VALID,92.5626,VALID,0,VALID,24.2866,VALID,179,VALID,0.439844,
2012-01-28, 02:54:04,VALID,998.129,VALID,0,VALID,92.5397,VALID,0,VALID,24.3062,VALID,179,VALID,0.160938,
2012-01-28, 02:55:04,VALID,998.218,VALID,0,VALID,92.5244,VALID,0,VALID,24.3062,VALID,179,VALID,0,
2012-01-28, 02:56:04,VALID,998.282,VALID,0,VALID,92.5015,VALID,0,VALID,24.3062,VALID,179,VALID,0.505078,
2012-01-28, 02:57:04,VALID,998.331,VALID,0,VALID,92.5168,VALID,0,VALID,24.3062,VALID,98,VALID,0.639453,
2012-01-28, 02:58:04,VALID,998.369,VALID,0,VALID,92.5244,VALID,0,VALID,24.2866,VALID,73,VALID,0.868359,
2012-01-28, 02:59:04,VALID,998.423,VALID,0,VALID,92.4939,VALID,0,VALID,24.2866,VALID,73,VALID,0.831641,
2012-01-28, 03:00:04,VALID,998.401,VALID,0,VALID,92.4023,VALID,0,VALID,24.2866,VALID,62,VALID,0.746094,
2012-01-28, 03:01:04,VALID,998.396,VALID,0,VALID,92.3794,VALID,0,VALID,24.2476,VALID,56,VALID,0.651563,
2012-01-28, 03:02:04,VALID,998.366,VALID,0,VALID,92.4252,VALID,0,VALID,24.2281,VALID,56,VALID,0.576563,
2012-01-28, 03:03:04,VALID,998.384,VALID,0,VALID,92.5168,VALID,0,VALID,24.1677,VALID,56,VALID,0.115625,
2012-01-28, 03:04:04,VALID,998.397,VALID,0,VALID,92.6236,VALID,0,VALID,24.1891,VALID,56,VALID,0.0988281,
2012-01-28, 03:05:04,VALID,998.398,VALID,0,VALID,92.6999,VALID,0,VALID,24.1872,VALID,56,VALID,0.354297,
2012-01-28, 03:06:04,VALID,998.403,VALID,0,VALID,92.7838,VALID,0,VALID,24.1891,VALID,56,VALID,0.382813,
2012-01-28, 03:07:04,VALID,998.431,VALID,0,VALID,92.822,VALID,0,VALID,24.2086,VALID,56,VALID,0.453516,
2012-01-28, 03:08:04,VALID,998.464,VALID,0,VALID,92.8296,VALID,0,VALID,24.2086,VALID,56,VALID,0.431641,
2012-01-28, 03:09:04,VALID,998.495,VALID,0,VALID,92.8601,VALID,0,VALID,24.2281,VALID,56,VALID,0.329688,
2012-01-28, 03:10:04,VALID,998.518,VALID,0,VALID,92.8448,VALID,0,VALID,24.2281,VALID,56,VALID,0,
2012-01-28, 03:11:04,VALID,998.585,VALID,0,VALID,92.883,VALID,0,VALID,24.2281,VALID,56,VALID,0,
2012-01-28, 03:12:04,VALID,998.6,VALID,0,VALID,92.9059,VALID,0,VALID,24.2281,VALID,56,VALID,0.418359,
2012-01-28, 03:13:04,VALID,998.669,VALID,0,VALID,92.9211,VALID,0,VALID,24.2281,VALID,56,VALID,0.497656,
2012-01-28, 03:14:04,VALID,998.695,VALID,0,VALID,92.9288,VALID,0,VALID,24.2281,VALID,56,VALID,0.710547,
2012-01-28, 03:15:04,VALID,998.748,VALID,0,VALID,92.9059,VALID,0,VALID,24.1891,VALID,56,VALID,0.878906,
2012-01-28, 03:16:04,VALID,998.785,VALID,0,VALID,92.944,VALID,0,VALID,24.1696,VALID,56,VALID,0.591406,
2012-01-28, 03:17:04,VALID,998.798,VALID,0,VALID,92.9364,VALID,0,VALID,24.15,VALID,56,VALID,0.757813,
2012-01-28, 03:18:04,VALID,998.75,VALID,0,VALID,92.9669,VALID,0,VALID,24.15,VALID,56,VALID,0.489062,
2012-01-28, 03:19:04,VALID,998.711,VALID,0,VALID,92.9669,VALID,0,VALID,24.1482,VALID,56,VALID,0.207031,
2012-01-28, 03:20:04,VALID,998.683,VALID,0,VALID,92.9669,VALID,0,VALID,24.1305,VALID,56,VALID,0.065625,
2012-01-28, 03:21:04,VALID,998.654,VALID,0,VALID,93.0051,VALID,0,VALID,24.111,VALID,56,VALID,0.628516,
2012-01-28, 03:22:04,VALID,998.591,VALID,0,VALID,93.0814,VALID,0,VALID,24.1305,VALID,56,VALID,0.663672,
2012-01-28, 03:23:04,VALID,998.594,VALID,0,VALID,93.1424,VALID,0,VALID,24.111,VALID,56,VALID,0.348047,
2012-01-28, 03:24:04,VALID,998.576,VALID,0,VALID,93.2111,VALID,0,VALID,24.1092,VALID,56,VALID,0.290234,
2012-01-28, 03:25:04,VALID,998.581,VALID,0,VALID,93.234,VALID,0,VALID,24.1305,VALID,56,VALID,0.273828,
2012-01-28, 03:26:04,VALID,998.589,VALID,0,VALID,93.2568,VALID,0,VALID,24.1305,VALID,56,VALID,0.293359,
2012-01-28, 03:27:04,VALID,998.583,VALID,0,VALID,93.2568,VALID,0,VALID,24.1305,VALID,56,VALID,0.0492188,
2012-01-28, 03:28:04,VALID,998.621,VALID,0,VALID,93.2568,VALID,0,VALID,24.1305,VALID,56,VALID,0,
2012-01-28, 03:29:04,VALID,998.643,VALID,0,VALID,93.2645,VALID,0,VALID,24.1305,VALID,56,VALID,0,
2012-01-28, 03:30:04,VALID,998.654,VALID,0,VALID,93.2721,VALID,0,VALID,24.15,VALID,56,VALID,0,
2012-01-28, 03:31:04,VALID,998.647,VALID,0,VALID,93.2645,VALID,0,VALID,24.1305,VALID,56,VALID,0.279297,
2012-01-28, 03:32:04,VALID,998.624,VALID,0,VALID,93.2797,VALID,0,VALID,24.15,VALID,56,VALID,0.248437,
2012-01-28, 03:33:04,VALID,998.581,VALID,0,VALID,93.2797,VALID,0,VALID,24.15,VALID,56,VALID,0.263672,
2012-01-28, 03:34:04,VALID,998.599,VALID,0,VALID,93.2797,VALID,0,VALID,24.15,VALID,56,VALID,0.186328,
2012-01-28, 03:35:04,VALID,998.584,VALID,0,VALID,93.3103,VALID,0,VALID,24.15,VALID,56,VALID,0.263281,
2012-01-28, 03:36:04,VALID,998.554,VALID,0,VALID,93.2721,VALID,0,VALID,24.15,VALID,56,VALID,0.637891,
2012-01-28, 03:37:04,VALID,998.523,VALID,0,VALID,93.2645,VALID,0,VALID,24.15,VALID,56,VALID,0.609766,
2012-01-28, 03:38:04,VALID,998.502,VALID,0,VALID,93.2568,VALID,0,VALID,24.1092,VALID,56,VALID,0.466406,
2012-01-28, 03:39:04,VALID,998.479,VALID,0,VALID,93.2492,VALID,0,VALID,24.1305,VALID,56,VALID,0.549609,
2012-01-28, 03:40:04,VALID,998.441,VALID,0,VALID,93.2416,VALID,0,VALID,24.15,VALID,56,VALID,0.487109,
2012-01-28, 03:41:04,VALID,998.391,VALID,0,VALID,93.2568,VALID,0,VALID,24.15,VALID,56,VALID,0.588672,
2012-01-28, 03:42:04,VALID,998.413,VALID,0,VALID,93.234,VALID,0,VALID,24.1696,VALID,56,VALID,0.470313,
2012-01-28, 03:43:04,VALID,998.417,VALID,0,VALID,93.2263,VALID,0,VALID,24.1696,VALID,56,VALID,0.1875,
2012-01-28, 03:44:04,VALID,998.367,VALID,0,VALID,93.1805,VALID,0,VALID,24.1891,VALID,56,VALID,0,
2012-01-28, 03:45:04,VALID,998.333,VALID,0,VALID,93.1577,VALID,0,VALID,24.1696,VALID,56,VALID,0,
2012-01-28, 03:46:04,VALID,998.362,VALID,0,VALID,93.1577,VALID,0,VALID,24.1891,VALID,56,VALID,0,
2012-01-28, 03:47:05,VALID,998.384,VALID,0,VALID,93.1958,VALID,0,VALID,24.1891,VALID,56,VALID,0.744922,
2012-01-28, 03:48:05,VALID,998.341,VALID,0,VALID,93.2263,VALID,0,VALID,24.2086,VALID,56,VALID,0.628125,
2012-01-28, 03:49:05,VALID,998.345,VALID,0,VALID,93.2721,VALID,0,VALID,24.2281,VALID,56,VALID,0.448047,
2012-01-28, 03:50:05,VALID,998.381,VALID,0,VALID,93.2645,VALID,0,VALID,24.2086,VALID,56,VALID,0.348047,